[[{"header":{"parameterUnit":"m.s-1","parameterCategory":1,"la1":30.2992,"la2":30.254,"lo1":-89.0895,"lo2":-89.0443,"dy":0.0025,"dx":0.0025,"nx":19,"ny":19,"refTime":"2026-03-29T09:00:00:Z","depth":0,"parameterNumber":2,"parameterNumberName":"U-component_of_WINDS"},"data":[0,0,0,-4.6382,-4.6385,-4.6512,-4.6513,-4.6674,-4.6676,0,0,0,0,0,0,0,0,0,0,0,-4.6346,-4.6347,-4.6382,-4.6385,-4.6512,-4.6513,-4.6674,-4.6676,0,0,0,0,0,0,0,0,0,0,0,-4.6345,-4.6347,-4.6348,-4.6386,-4.6512,-4.6513,-4.6674,-4.6578,0,0,0,0,0,0,0,0,0,0,-4.6454,-4.6422,-4.6346,-4.6348,-4.6387,-4.6512,-4.6513,-4.6573,-4.6584,-4.6617,0,-4.6648,0,-4.6664,-4.6687,-4.6687,0,0,0,-4.6384,-4.6413,-4.6447,-4.6348,-4.6388,-4.6512,-4.6455,-4.6579,-4.6591,-4.6631,-4.665,-4.6656,-4.6667,-4.6688,-4.6689,-4.6884,-4.6885,0,0,-4.6377,-4.6369,-4.6438,-4.6454,-4.6437,-4.6451,-4.6459,-4.6586,-4.6606,-4.6651,-4.666,-4.667,-4.6689,-4.669,-4.6883,-4.6884,0,0,0,-4.6358,-4.6364,-4.6394,-4.6448,-4.6471,-4.6454,-4.6464,-4.66,-4.6611,-4.6662,-4.6672,-4.669,-4.6692,-4.6882,-4.6883,-4.6921,0,0,0,-4.6354,-4.6353,-4.6391,-4.6387,-4.6469,-4.6538,-4.6475,-4.6602,-4.6617,-4.6671,-4.669,-4.6693,-4.6881,-4.6883,-4.6917,-4.6939,0,0,0,-4.6337,-4.6351,-4.6369,-4.6386,-4.6441,-4.6536,-4.6554,-4.6606,-4.6623,-4.6687,-4.6694,-4.688,-4.6882,-4.6914,-4.6934,-4.6985,0,0,0,-4.6316,-4.6402,-4.637,-4.6469,-4.644,-4.6559,-4.6553,-4.6642,-4.6702,-4.6691,-4.6881,-4.6883,-4.6914,-4.6931,-4.6982,-4.7024,-4.7042,0,0,-4.6419,-4.6414,-4.6473,-4.6448,-4.657,-4.654,-4.6668,-4.6731,-4.6745,-4.6836,-4.6841,-4.6918,-4.6934,-4.6984,-4.7151,-4.7165,0,0,0,-4.6502,-4.6544,-4.6578,-4.6635,-4.6686,-4.6729,-4.6774,-4.6797,-4.6875,-4.6791,-4.6953,-4.6962,-4.6992,-4.7013,-4.7025,-4.7049,-4.6894,-4.6893,-4.6893,-4.6632,-4.6646,-4.6743,-4.6772,-4.6827,-4.6872,-4.6917,-4.6955,-4.6954,-4.6992,-4.7018,-4.7117,-4.7141,-4.715,-4.7176,-4.7044,-4.7044,-4.7045,-4.7045,-4.6781,-4.684,-4.6836,-4.6929,-4.6942,-4.702,-4.7066,-4.7062,-4.7135,-4.7099,-4.7126,-4.7083,-4.7165,-4.7188,-4.7048,-4.7047,-4.7047,-4.7047,-4.7046,-4.6864,-4.6895,-4.6923,-4.7005,-4.7067,-4.7094,-4.7163,-4.7174,-4.7184,-4.7212,-4.7238,-4.7238,-4.7235,-4.7224,-4.7225,-4.7225,-4.7225,-4.7226,-4.7226,-4.6939,-4.6969,-4.7027,-4.7088,-4.7124,-4.7174,-4.722,-4.7256,-4.7299,-4.7301,-4.7301,-4.7293,-4.7172,-4.7139,-4.7231,-4.723,-4.723,-4.7229,-4.7229,-4.7078,-4.7048,-4.7138,-4.7175,-4.7245,-4.7304,-4.7318,-4.7391,-4.7422,-4.7456,-4.7443,-4.7354,-4.7348,-4.7339,-4.7311,-4.7442,-4.7442,-4.7442,-4.7442,-4.7146,-4.7146,-4.7238,-4.7296,-4.7354,-4.7375,-4.7473,-4.7509,-4.7542,-4.7562,-4.7545,-4.7511,-4.7502,-4.7502,-4.7489,-4.7463,-4.763,-4.763,-4.763,-4.7231,-4.7236,-4.7318,-4.735,-4.7406,-4.7454,-4.7545,-4.761,-4.7642,-4.7638,-4.7577,-4.7569,-4.7514,-4.7497,-4.7488,-4.7468,-4.7421,0,0]},{"header":{"parameterUnit":"m.s-1","parameterCategory":1,"la1":30.2992,"la2":30.254,"lo1":-89.0895,"lo2":-89.0443,"dy":0.0025,"dx":0.0025,"nx":19,"ny":19,"refTime":"2026-03-29T09:00:00:Z","depth":0,"parameterNumber":3,"parameterNumberName":"V-component_of_WINDS"},"data":[0,0,0,4.1036,4.1039,4.1176,4.1176,4.1347,4.1349,0,0,0,0,0,0,0,0,0,0,0,4.0994,4.0995,4.1036,4.1039,4.1176,4.1177,4.1347,4.1349,0,0,0,0,0,0,0,0,0,0,0,4.0994,4.0995,4.0997,4.104,4.1176,4.1177,4.1347,4.1245,0,0,0,0,0,0,0,0,0,0,4.1113,4.1073,4.0995,4.0997,4.1041,4.1176,4.1177,4.124,4.1251,4.1284,0,4.1314,0,4.1334,4.136,4.1361,0,0,0,4.104,4.1063,4.1102,4.0997,4.1042,4.1175,4.1114,4.1246,4.1259,4.1299,4.1317,4.1323,4.1337,4.1361,4.1362,4.1555,4.1556,0,0,4.1032,4.1018,4.1093,4.111,4.109,4.111,4.1119,4.1254,4.1271,4.1317,4.1327,4.134,4.1362,4.1364,4.1554,4.1555,0,0,0,4.101,4.1012,4.1048,4.1103,4.1128,4.1114,4.1124,4.1265,4.1278,4.1329,4.1342,4.1363,4.1365,4.1553,4.1555,4.1584,0,0,0,4.1006,4.0999,4.1044,4.1036,4.1125,4.1199,4.1132,4.1269,4.1285,4.1341,4.1363,4.1367,4.1552,4.1554,4.1582,4.16,0,0,0,4.0986,4.0997,4.1017,4.1035,4.1094,4.1197,4.1217,4.1273,4.1293,4.1361,4.1368,4.1552,4.1554,4.1579,4.1596,4.1648,0,0,0,4.0959,4.1039,4.1017,4.1111,4.1093,4.1215,4.1217,4.1308,4.137,4.1364,4.1552,4.1554,4.1578,4.1594,4.1645,4.1688,4.1705,0,0,4.1051,4.105,4.1106,4.109,4.1213,4.1195,4.1322,4.1391,4.141,4.1505,4.151,4.1582,4.1596,4.1647,4.1805,4.1818,0,0,0,4.113,4.1171,4.1207,4.1266,4.1323,4.1374,4.1426,4.1453,4.1535,4.1457,4.1615,4.1624,4.1655,4.1676,4.1687,4.1715,4.1564,4.1564,4.1563,4.1238,4.1261,4.1356,4.1396,4.1454,4.1509,4.1558,4.1603,4.1606,4.1644,4.1672,4.1765,4.179,4.1798,4.1827,4.1697,4.1697,4.1697,4.1697,4.1375,4.1436,4.1443,4.1538,4.1562,4.1642,4.1699,4.1699,4.1777,4.1745,4.1773,4.1736,4.1812,4.1838,4.17,4.1699,4.1699,4.1699,4.1699,4.1447,4.1481,4.1514,4.1604,4.1671,4.1709,4.1784,4.1802,4.182,4.1848,4.188,4.188,4.1882,4.1862,4.1862,4.1863,4.1863,4.1863,4.1863,4.151,4.1546,4.1608,4.1678,4.172,4.1777,4.1835,4.1877,4.1928,4.1935,4.1935,4.1936,4.1816,4.1785,4.1869,4.1868,4.1867,4.1866,4.1866,4.164,4.1614,4.171,4.1752,4.1837,4.1903,4.1927,4.2011,4.2048,4.2085,4.2081,4.1989,4.1987,4.1978,4.1953,4.2075,4.2075,4.2075,4.2075,4.1701,4.1703,4.1807,4.1874,4.1942,4.1974,4.2082,4.2129,4.2172,4.2197,4.2182,4.2151,4.2141,4.2145,4.2133,4.211,4.2269,4.2269,4.2269,4.1783,4.1793,4.1881,4.1926,4.1994,4.2052,4.2155,4.2231,4.2276,4.2277,4.2217,4.2209,4.2158,4.214,4.2138,4.2119,4.2076,0,0]}]]